This is the latest recevied weather packets stored in our database for station/object WP3OF. If no packets are shown the sender has not sent any weather packets the latest 10 day(s).
| Time | Temp. | Humidity | Pressure | Rain* | Wind** | Luminosity | Snow |
|---|---|---|---|---|---|---|---|
| 1777206828 | 26.67° C | 69% | 1016.5 hPa | 0 mm | - | - | - |
| 1777206522 | 26.11° C | 70% | 1016.6 hPa | 0 mm | - | - | - |
| 1777206218 | 26.67° C | 70% | 1016.6 hPa | 0 mm | - | - | - |
| 1777205913 | 26.67° C | 70% | 1016.6 hPa | 0 mm | - | - | - |
| 1777205610 | 26.11° C | 70% | 1016.6 hPa | 0 mm | - | - | - |
| 1777205307 | 26.67° C | 70% | 1016.3 hPa | 0 mm | - | - | - |
| 1777205002 | 26.11° C | 70% | 1016.4 hPa | 0 mm | - | - | - |
| 1777204698 | 26.11° C | 73% | 1016.6 hPa | 0 mm | - | - | - |
| 1777204393 | 26.11° C | 73% | 1016.4 hPa | 0 mm | - | - | - |
| 1777204090 | 25.56° C | 76% | 1016.7 hPa | 0 mm | - | - | - |
| 1777203786 | 25.56° C | 75% | 1016.3 hPa | 0 mm | - | - | - |
| 1777203480 | 25° C | 77% | 1016.5 hPa | 0 mm | - | - | - |
| 1777203176 | 24.44° C | 77% | 1016.3 hPa | 0 mm | - | - | - |
| 1777202874 | 24.44° C | 79% | 1016.3 hPa | 0 mm | - | - | - |
| 1777202572 | 23.89° C | 80% | 1016.3 hPa | 0 mm | - | - | - |
| 1777202267 | 23.89° C | 80% | 1016.4 hPa | 0 mm | - | - | - |
| 1777201963 | 23.89° C | 80% | 1016.2 hPa | 0 mm | - | - | - |
| 1777201659 | 23.33° C | 81% | 1016.1 hPa | 0 mm | - | - | - |
| 1777201356 | 22.78° C | 83% | 1016.1 hPa | 0 mm | - | - | - |
| 1777201051 | 22.78° C | 83% | 1016.2 hPa | 0 mm | - | - | - |
| 1777200747 | 22.78° C | 83% | 1016 hPa | 0 mm | - | - | - |
| 1777200442 | 22.78° C | 84% | 1015.9 hPa | 0 mm | - | - | - |
| 1777200139 | 22.22° C | 85% | 1016.1 hPa | 0 mm | - | - | - |
| 1777199835 | 22.22° C | 86% | 1015.8 hPa | 0 mm | - | - | - |
| 1777199530 | 22.22° C | 86% | 1015.9 hPa | 0 mm | - | - | - |
* Rain latest hour (hover to see other rain measurements)
** Current wind speed in m/s (hover to see current wind gust speed)